[[{"header":{"parameterUnit":"m.s-1","parameterCategory":1,"la1":30.2991,"la2":30.254,"lo1":-89.0895,"lo2":-89.0444,"dy":0.0017,"dx":0.0017,"nx":28,"ny":28,"refTime":"2024-10-05T21:00:00:Z","depth":0,"parameterNumber":2,"parameterNumberName":"U-component_of_WINDS"},"data":[0,0,0,0,0,0,0,0,0,0,0,0,0,0,0,0,0,0,0,0,0,0,0,0,0,0,0,0,0,0,0,0,0,0,0,0,0,0,0,0,0,0,0,0,0,0,0,0,0,0,0,0,0,0,0,0,0,0,-4.1827,-4.1827,0,-4.1866,-4.1867,-4.1867,-4.1763,-4.176,-4.1757,-4.1754,-4.1796,-4.18,-4.1804,0,0,0,0,0,0,0,0,0,0,0,0,0,-4.1664,-4.1668,-4.1827,-4.1827,-4.1828,-4.1866,-4.1867,-4.1867,-4.1764,-4.176,-4.1756,-4.1752,-4.1795,-4.1799,-4.1804,0,0,0,0,0,0,0,0,0,0,0,0,0,-4.1722,-4.1669,-4.1827,-4.1781,-4.1777,-4.1866,-4.1867,-4.1868,-4.1765,-4.176,-4.1755,-4.175,-4.1793,-4.1799,-4.1805,-4.1941,0,0,-4.1824,-4.1827,0,0,0,0,0,0,0,0,-4.1719,-4.1729,-4.1787,-4.1784,-4.178,-4.1805,-4.1825,-4.1892,-4.1766,-4.1769,-4.1753,-4.1748,-4.1803,-4.1808,-4.1826,-4.1943,-4.1945,-4.1825,-4.1829,-4.1831,-4.1833,0,0,0,0,0,0,0,-4.1715,-4.1726,-4.1843,-4.1788,-4.1784,-4.1759,-4.1762,-4.1837,-4.1813,-4.1769,-4.1761,-4.1767,-4.18,-4.1821,-4.1826,-4.1946,-4.1825,-4.183,-4.1834,-4.1836,-4.2179,-4.2184,0,0,0,0,0,0,-4.1717,-4.1724,-4.1841,-4.1844,-4.1737,-4.1766,-4.1769,-4.1802,-4.1812,-4.1809,-4.1771,-4.1762,-4.1812,-4.1819,-4.1828,-4.1989,-4.1831,-4.1837,-4.1841,-4.2173,-4.218,-4.2186,0,0,0,0,0,0,-4.1714,-4.1728,-4.184,-4.1782,-4.1794,-4.1774,-4.1812,-4.1805,-4.1825,-4.1814,-4.1809,-4.1797,-4.1809,-4.1819,-4.1914,-4.1989,-4.184,-4.1846,-4.2167,-4.2175,-4.2183,-4.2313,0,0,0,0,0,0,-4.171,-4.1728,-4.1779,-4.1784,-4.1797,-4.1926,-4.1816,-4.181,-4.1836,-4.1825,-4.1836,-4.1834,-4.1806,-4.1905,-4.192,-4.1995,-4.185,-4.216,-4.2171,-4.218,-4.2302,-4.2325,-4.2344,0,0,0,0,0,-4.1704,-4.1814,-4.1782,-4.1797,-4.1861,-4.193,-4.1938,-4.1903,-4.1843,-4.1894,-4.1887,-4.1833,-4.1978,-4.1916,-4.1932,-4.201,-4.2155,-4.2168,-4.2179,-4.2293,-4.232,-4.2344,0,0,0,0,0,0,-4.1819,-4.1814,-4.1778,-4.1893,-4.1913,-4.1912,-4.1976,-4.1933,-4.1971,-4.1958,-4.1914,-4.1917,-4.2022,-4.2025,-4.1955,-4.2143,-4.2057,-4.2073,-4.2138,-4.2164,-4.2184,-4.2182,-4.1856,0,0,0,0,0,-4.1858,-4.1914,-4.1906,-4.2008,-4.202,-4.1997,-4.2026,-4.1997,-4.2016,-4.2024,-4.2023,-4.2045,-4.2095,-4.2129,-4.2174,-4.2302,-4.2304,-4.2363,-4.2384,-4.2401,-4.2416,-4.2486,-4.2513,-4.2225,-4.2225,-4.2225,0,0,-4.1939,-4.1943,-4.1981,-4.2032,-4.2043,-4.2104,-4.2005,-4.2072,-4.2116,-4.2034,-4.2125,-4.2125,-4.2146,-4.2258,-4.2308,-4.2264,-4.2496,-4.2417,-4.2431,-4.2436,-4.2501,-4.2528,-4.2552,-4.2233,-4.2232,-4.2231,0,0,-4.2117,-4.2125,-4.2211,-4.2225,-4.2244,-4.2228,-4.2249,-4.2256,-4.2253,-4.2343,-4.2283,-4.2335,-4.2423,-4.244,-4.2461,-4.2647,-4.2599,-4.2663,-4.2773,-4.2841,-4.2864,-4.2884,-4.2952,-4.2977,-4.2677,-4.2677,-4.2678,0,-4.2215,-4.2302,-4.2261,-4.2334,-4.2358,-4.2286,-4.2374,-4.239,-4.2424,-4.2443,-4.2393,-4.2503,-4.2511,-4.2628,-4.2673,-4.2691,-4.2715,-4.2662,-4.2864,-4.2883,-4.2901,-4.2966,-4.2992,-4.2685,-4.2684,-4.2683,-4.2683,0,-4.2423,-4.2485,-4.2552,-4.2587,-4.2619,-4.2699,-4.2671,-4.2709,-4.2678,-4.2667,-4.2761,-4.2768,-4.2815,-4.284,-4.281,-4.2953,-4.2926,-4.2871,-4.2783,-4.2937,-4.2997,-4.3022,-4.2696,-4.2693,-4.2691,-4.2689,0,0,-4.2675,-4.2686,-4.2712,-4.2728,-4.2744,-4.2791,-4.2868,-4.2914,-4.2948,-4.2973,-4.3038,-4.3114,-4.3063,-4.3087,-4.3058,-4.3118,-4.3267,-4.3055,-4.3055,-4.3096,-4.3428,-4.3471,-4.35,-4.3235,-4.3239,-4.3243,-4.3427,0,-4.2853,-4.2985,-4.2951,-4.3082,-4.314,-4.3072,-4.314,-4.3158,-4.315,-4.3199,-4.319,-4.3245,-4.3173,-4.3187,-4.3243,-4.3237,-4.3333,-4.3223,-4.3297,-4.33,-4.3296,-4.3531,-4.3576,-4.3749,-4.345,-4.3454,-4.3456,0,-4.3077,-4.3112,-4.325,-4.3258,-4.3281,-4.3342,-4.3381,-4.3428,-4.3447,-4.3438,-4.3465,-4.3424,-4.3501,-4.3412,-4.3519,-4.3445,-4.3473,-4.3475,-4.348,-4.3488,-4.3389,-4.3546,-4.3803,-4.383,-4.3493,-4.349,-4.3487,0,-4.3251,-4.3331,-4.3424,-4.3439,-4.3451,-4.3496,-4.3503,-4.3517,-4.3547,-4.3581,-4.3601,-4.3644,-4.3669,-4.3704,-4.3677,-4.3614,-4.3789,-4.3697,-4.3785,-4.3786,-4.3826,-4.3824,-4.4093,-4.3841,-4.3841,-4.384,-4.384,0,-4.3453,-4.3541,-4.3503,-4.356,-4.3657,-4.3617,-4.3714,-4.3713,-4.3726,-4.3783,-4.3727,-4.3782,-4.3742,-4.3794,-4.3773,-4.3866,-4.3877,-4.3873,-4.3867,-4.3879,-4.388,-4.3898,-4.3886,-4.3847,-4.3845,-4.3844,-4.3843,0,-4.3664,-4.3641,-4.3739,-4.3742,-4.3744,-4.3816,-4.3818,-4.3872,-4.386,-4.3934,-4.3948,-4.393,-4.3989,-4.3965,-4.4026,-4.4012,-4.4132,-4.4109,-4.4126,-4.4121,-4.4211,-4.4204,-4.4502,-4.454,-4.4262,-4.4265,-4.4267,0,-4.3796,-4.3861,-4.3871,-4.3905,-4.3916,-4.3972,-4.4002,-4.3965,-4.3999,-4.4027,-4.4079,-4.4132,-4.4172,-4.4269,-4.4262,-4.4309,-4.4288,-4.439,-4.4295,-4.4306,-4.4292,-4.429,-4.4297,-4.4409,-4.4413,-4.4415,-4.4417,0,-4.4033,-4.4019,-4.4064,-4.4107,-4.4145,-4.4177,-4.4203,-4.4235,-4.4199,-4.4241,-4.4299,-4.4331,-4.4394,-4.4449,-4.4491,-4.4499,-4.4454,-4.4447,-4.447,-4.4485,-4.4493,-4.4492,-4.418,-4.4441,-4.4438,-4.4437,-4.4435,-4.4434,-4.4209,-4.4265,-4.4281,-4.4335,-4.4351,-4.4378,-4.4429,-4.4424,-4.4472,-4.452,-4.4496,-4.4565,-4.4583,-4.4635,-4.465,-4.4704,-4.4664,-4.4697,-4.4706,-4.4715,-4.4728,-4.4482,-4.4711,-4.471,-4.471,-4.4709,-4.4709,0,-4.4445,-4.4452,-4.4502,-4.4541,-4.4584,-4.4536,-4.4563,-4.4602,-4.4664,-4.4685,-4.4726,-4.4795,-4.4847,-4.4845,-4.4893,-4.4938,-4.4918,-4.4952,-4.4949,-4.4952,-4.476,-4.4736,-4.4967,-4.4967,-4.4967,-4.4967,-4.4967,-4.4967,-4.4573,-4.4666,-4.4654,-4.4755,-4.4761,-4.4828,-4.4849,-4.4874,-4.489,-4.4969,-4.5013,-4.501,-4.5022,-4.5072,-4.5118,-4.5116,-4.5138,-4.518,-4.5171,-4.4991,-4.4966,-4.4941,-4.4919,-4.5184,-4.5185,-4.5359,-4.536,-4.5362]},{"header":{"parameterUnit":"m.s-1","parameterCategory":1,"la1":30.2991,"la2":30.254,"lo1":-89.0895,"lo2":-89.0444,"dy":0.0017,"dx":0.0017,"nx":28,"ny":28,"refTime":"2024-10-05T21:00:00:Z","depth":0,"parameterNumber":3,"parameterNumberName":"V-component_of_WINDS"},"data":[0,0,0,0,0,0,0,0,0,0,0,0,0,0,0,0,0,0,0,0,0,0,0,0,0,0,0,0,0,0,0,0,0,0,0,0,0,0,0,0,0,0,0,0,0,0,0,0,0,0,0,0,0,0,0,0,0,0,-4.1292,-4.1292,0,-4.13,-4.13,-4.13,-4.1244,-4.1242,-4.124,-4.1239,-4.1247,-4.1249,-4.125,0,0,0,0,0,0,0,0,0,0,0,0,0,-4.1227,-4.1228,-4.1292,-4.1292,-4.1293,-4.13,-4.13,-4.1301,-4.1244,-4.1242,-4.124,-4.1238,-4.1246,-4.1248,-4.125,0,0,0,0,0,0,0,0,0,0,0,0,0,-4.1247,-4.1229,-4.1292,-4.1265,-4.1263,-4.13,-4.13,-4.1301,-4.1244,-4.1242,-4.124,-4.1237,-4.1246,-4.1248,-4.1251,-4.1315,0,0,-4.1259,-4.126,0,0,0,0,0,0,0,0,-4.1246,-4.1249,-4.1269,-4.1267,-4.1265,-4.1268,-4.128,-4.1305,-4.1245,-4.1251,-4.1239,-4.1236,-4.1256,-4.1258,-4.1264,-4.1315,-4.1315,-4.1259,-4.126,-4.1261,-4.1262,0,0,0,0,0,0,0,-4.1244,-4.1249,-4.1295,-4.1269,-4.1267,-4.1252,-4.1252,-4.1285,-4.1267,-4.1251,-4.1247,-4.1248,-4.1254,-4.1262,-4.1264,-4.1315,-4.1259,-4.1261,-4.1263,-4.1264,-4.1416,-4.1419,0,0,0,0,0,0,-4.1247,-4.1248,-4.1295,-4.1296,-4.1249,-4.1255,-4.1256,-4.127,-4.1267,-4.1264,-4.125,-4.1246,-4.1259,-4.1261,-4.1264,-4.1337,-4.1261,-4.1264,-4.1265,-4.1414,-4.1417,-4.1419,0,0,0,0,0,0,-4.1246,-4.1252,-4.1295,-4.1271,-4.1275,-4.1259,-4.1275,-4.1271,-4.1279,-4.1266,-4.1263,-4.1261,-4.1257,-4.1261,-4.1302,-4.1336,-4.1265,-4.1267,-4.1411,-4.1415,-4.1418,-4.1484,0,0,0,0,0,0,-4.1244,-4.1252,-4.1276,-4.1272,-4.1277,-4.1333,-4.1277,-4.1273,-4.1283,-4.1277,-4.1276,-4.1273,-4.1255,-4.1298,-4.1304,-4.1339,-4.1269,-4.1407,-4.1412,-4.1417,-4.1479,-4.149,-4.1499,0,0,0,0,0,-4.1242,-4.1295,-4.1278,-4.1284,-4.1307,-4.1335,-4.1338,-4.1316,-4.1286,-4.131,-4.1302,-4.1273,-4.1332,-4.1303,-4.1309,-4.1345,-4.1405,-4.1411,-4.1417,-4.1474,-4.1487,-4.1499,0,0,0,0,0,0,-4.1304,-4.1294,-4.1275,-4.1328,-4.1333,-4.1326,-4.1355,-4.1332,-4.1345,-4.1339,-4.1311,-4.1312,-4.1357,-4.1355,-4.1323,-4.1405,-4.1363,-4.137,-4.1405,-4.1417,-4.1427,-4.1426,-4.1271,0,0,0,0,0,-4.1324,-4.1348,-4.1338,-4.1386,-4.1389,-4.1372,-4.1384,-4.1366,-4.137,-4.1372,-4.1367,-4.1372,-4.1391,-4.1404,-4.1421,-4.1478,-4.1476,-4.1506,-4.1516,-4.1524,-4.1531,-4.1559,-4.1571,-4.1438,-4.1438,-4.1438,0,0,-4.1366,-4.1363,-4.138,-4.1398,-4.14,-4.1424,-4.1374,-4.1403,-4.1421,-4.1376,-4.1414,-4.1411,-4.1414,-4.1463,-4.1485,-4.1463,-4.1567,-4.1532,-4.1538,-4.154,-4.1566,-4.1578,-4.159,-4.1442,-4.1441,-4.1441,0,0,-4.1453,-4.1455,-4.1494,-4.1496,-4.1499,-4.1487,-4.1496,-4.1492,-4.1488,-4.1526,-4.1493,-4.1513,-4.1548,-4.1551,-4.1557,-4.1644,-4.1618,-4.1651,-4.1703,-4.1731,-4.1741,-4.1751,-4.178,-4.1791,-4.1657,-4.1657,-4.1657,0,-4.1505,-4.1541,-4.1517,-4.1547,-4.1555,-4.1516,-4.1554,-4.1558,-4.1567,-4.1573,-4.1549,-4.159,-4.159,-4.1638,-4.1659,-4.1666,-4.1674,-4.165,-4.1742,-4.1751,-4.1759,-4.1787,-4.1798,-4.1661,-4.1661,-4.166,-4.166,0,-4.1602,-4.1628,-4.1659,-4.1667,-4.1679,-4.1714,-4.1694,-4.1709,-4.169,-4.1681,-4.1719,-4.1717,-4.1732,-4.1743,-4.1725,-4.1788,-4.1774,-4.1747,-4.1703,-4.1776,-4.1801,-4.1812,-4.1667,-4.1665,-4.1664,-4.1663,0,0,-4.1731,-4.1724,-4.1736,-4.1738,-4.1738,-4.1756,-4.1789,-4.1803,-4.1815,-4.1823,-4.1848,-4.1877,-4.1851,-4.1858,-4.1841,-4.1865,-4.1932,-4.1834,-4.1834,-4.1851,-4.1999,-4.2019,-4.2032,-4.1915,-4.1917,-4.1918,-4.1998,0,-4.1815,-4.1869,-4.1847,-4.1903,-4.1925,-4.1887,-4.1915,-4.1917,-4.1909,-4.1926,-4.1917,-4.1937,-4.1902,-4.1906,-4.1928,-4.1919,-4.1961,-4.1913,-4.1937,-4.1938,-4.1936,-4.2045,-4.2067,-4.2142,-4.2008,-4.201,-4.2011,0,-4.1921,-4.1931,-4.1989,-4.1982,-4.1991,-4.2016,-4.2026,-4.2044,-4.2045,-4.2037,-4.2044,-4.2021,-4.2051,-4.2009,-4.2049,-4.2017,-4.2026,-4.2023,-4.2025,-4.2025,-4.1978,-4.2047,-4.2166,-4.2177,-4.2027,-4.2026,-4.2025,0,-4.2006,-4.2034,-4.2072,-4.2075,-4.2069,-4.2088,-4.2086,-4.2085,-4.2095,-4.2104,-4.2109,-4.2123,-4.2129,-4.214,-4.212,-4.2091,-4.2163,-4.2119,-4.2156,-4.2157,-4.2172,-4.2171,-4.2292,-4.218,-4.218,-4.218,-4.2179,0,-4.2102,-4.2138,-4.211,-4.2133,-4.2172,-4.2146,-4.2186,-4.218,-4.2179,-4.22,-4.2168,-4.2188,-4.2162,-4.2179,-4.2164,-4.2199,-4.2203,-4.2197,-4.2192,-4.2199,-4.2199,-4.2203,-4.2197,-4.2183,-4.2182,-4.2181,-4.2181,0,-4.2204,-4.2186,-4.2224,-4.2215,-4.2213,-4.2242,-4.2234,-4.2255,-4.2244,-4.227,-4.2275,-4.2258,-4.2276,-4.2258,-4.2276,-4.2266,-4.2312,-4.23,-4.2311,-4.2307,-4.2344,-4.2341,-4.2471,-4.2486,-4.2366,-4.2367,-4.2368,0,-4.2265,-4.2292,-4.2285,-4.2296,-4.2296,-4.2315,-4.2324,-4.23,-4.231,-4.2313,-4.2333,-4.2349,-4.236,-4.2391,-4.238,-4.2393,-4.2381,-4.2426,-4.2383,-4.2388,-4.238,-4.2378,-4.2379,-4.2434,-4.2436,-4.2437,-4.2438,0,-4.2376,-4.2365,-4.2379,-4.239,-4.2401,-4.2408,-4.2413,-4.2424,-4.2399,-4.2412,-4.243,-4.2439,-4.2456,-4.2472,-4.2482,-4.248,-4.2454,-4.2451,-4.246,-4.2467,-4.2471,-4.2467,-4.2333,-4.2448,-4.2447,-4.2447,-4.2446,-4.2446,-4.2458,-4.2479,-4.2477,-4.2493,-4.2494,-4.2499,-4.2517,-4.2507,-4.2522,-4.2534,-4.2518,-4.254,-4.254,-4.255,-4.2551,-4.2567,-4.2548,-4.2562,-4.2565,-4.2568,-4.2573,-4.247,-4.2569,-4.2569,-4.2569,-4.2568,-4.2568,0,-4.2565,-4.2562,-4.2577,-4.2584,-4.2596,-4.2571,-4.2574,-4.2586,-4.2606,-4.2607,-4.2618,-4.2638,-4.2653,-4.2643,-4.2655,-4.267,-4.2659,-4.2674,-4.2672,-4.2671,-4.259,-4.258,-4.2683,-4.2683,-4.2683,-4.2683,-4.2683,-4.2683,-4.2623,-4.2656,-4.2645,-4.2679,-4.2675,-4.2695,-4.2699,-4.2703,-4.2704,-4.2727,-4.2739,-4.2732,-4.2728,-4.274,-4.2752,-4.2748,-4.2754,-4.2773,-4.2765,-4.2689,-4.2678,-4.2667,-4.2657,-4.2775,-4.2775,-4.2845,-4.2846,-4.2846]}]]